M I D A S
Marine Information and Data Acquisition System
Tripno 1547 of the Zeeleeuw from 2008-03-07 07:16:49 to 2008-03-07 12:44:20
Back to CruiseResearch ActivitiesStationsMapUnderway DataData graphs

EquipmentUnitsComments
TimeDGPSUTC
LatitudeDGPSDM.mWGS84
LongitudeDGPSDM.mWGS84
SpeedMeteo Stationm/sRelative wind speed
DirectionMeteo StationdegRelative wind direction
TemperatureMeteo Stationdeg CelciusAir temperature
PressureMeteo StationPaAtmospheric pressure
HumidityMeteo Station%Relative humidity
Missing or incorrect values are displayed as -999
Metereological data collected by the RV Zeeleeuw from 2008-03-07 07:19:05 to 2008-03-07 12:52:52
                                                                                    Next 1000 lines
Time Latitude Longitude Speed Direction Temperature Pressure Humidity
2008-03-07 07:19:15 51°13.664 2°55.952 -999 -999 -999 -999 -999
2008-03-07 07:19:20 51°13.665 2°55.95 -999 -999 -999 -999 -999
2008-03-07 07:19:25 51°13.666 2°55.947 -999 -999 -999 -999 -999
2008-03-07 07:19:30 51°13.667 2°55.943 -999 -999 -999 -999 -999
2008-03-07 07:19:35 51°13.668 2°55.938 -999 -999 -999 -999 -999
2008-03-07 07:19:40 51°13.669 2°55.933 -999 -999 -999 -999 -999
2008-03-07 07:19:45 51°13.67 2°55.927 -999 -999 -999 -999 -999
2008-03-07 07:19:50 51°13.672 2°55.921 -999 -999 -999 -999 -999
2008-03-07 07:19:55 51°13.674 2°55.914 -999 -999 -999 -999 -999
2008-03-07 07:20:00 51°13.676 2°55.907 -999 -999 -999 -999 -999
2008-03-07 07:20:05 51°13.678 2°55.899 -999 -999 -999 -999 -999
2008-03-07 07:20:10 51°13.68 2°55.891 -999 -999 -999 -999 -999
2008-03-07 07:20:15 51°13.682 2°55.882 -999 -999 -999 -999 -999
2008-03-07 07:20:20 51°13.683 2°55.874 -999 -999 -999 -999 -999
2008-03-07 07:20:25 51°13.684 2°55.866 -999 -999 -999 -999 -999
2008-03-07 07:20:30 51°13.686 2°55.857 -999 -999 -999 -999 -999
2008-03-07 07:20:35 51°13.686 2°55.85 -999 -999 -999 -999 -999
2008-03-07 07:20:40 51°13.687 2°55.842 -999 -999 -999 -999 -999
2008-03-07 07:20:45 51°13.688 2°55.835 -999 -999 -999 -999 -999
2008-03-07 07:20:50 51°13.689 2°55.828 -999 -999 -999 -999 -999
2008-03-07 07:20:55 51°13.689 2°55.821 -999 -999 -999 -999 -999
2008-03-07 07:21:00 51°13.689 2°55.814 -999 -999 -999 -999 -999
2008-03-07 07:21:05 51°13.689 2°55.807 -999 -999 -999 -999 -999
2008-03-07 07:21:10 51°13.689 2°55.8 -999 -999 -999 -999 -999
2008-03-07 07:21:15 51°13.689 2°55.794 -999 -999 -999 -999 -999
2008-03-07 07:21:20 51°13.689 2°55.788 -999 -999 -999 -999 -999
2008-03-07 07:21:25 51°13.689 2°55.781 -999 -999 -999 -999 -999
2008-03-07 07:21:30 51°13.689 2°55.775 -999 -999 -999 -999 -999
2008-03-07 07:21:35 51°13.688 2°55.77 -999 -999 -999 -999 -999
2008-03-07 07:21:40 51°13.688 2°55.764 -999 -999 -999 -999 -999
2008-03-07 07:21:45 51°13.688 2°55.759 -999 -999 -999 -999 -999
2008-03-07 07:21:50 51°13.687 2°55.754 -999 -999 -999 -999 -999
2008-03-07 07:21:55 51°13.687 2°55.75 -999 -999 -999 -999 -999
2008-03-07 07:22:00 51°13.686 2°55.746 -999 -999 -999 -999 -999
2008-03-07 07:22:05 51°13.686 2°55.743 -999 -999 -999 -999 -999
2008-03-07 07:22:10 51°13.685 2°55.74 -999 -999 -999 -999 -999
2008-03-07 07:22:15 51°13.685 2°55.738 -999 -999 -999 -999 -999
2008-03-07 07:22:20 51°13.685 2°55.736 -999 -999 -999 -999 -999
2008-03-07 07:22:25 51°13.685 2°55.735 -999 -999 -999 -999 -999
2008-03-07 07:22:30 51°13.685 2°55.735 -999 -999 -999 -999 -999
2008-03-07 07:22:35 51°13.686 2°55.735 -999 -999 -999 -999 -999
2008-03-07 07:22:40 51°13.686 2°55.735 -999 -999 -999 -999 -999
2008-03-07 07:22:45 51°13.687 2°55.736 -999 -999 -999 -999 -999
2008-03-07 07:22:50 51°13.689 2°55.737 -999 -999 -999 -999 -999
2008-03-07 07:22:55 51°13.691 2°55.738 -999 -999 -999 -999 -999
2008-03-07 07:23:00 51°13.693 2°55.739 -999 -999 -999 -999 -999
2008-03-07 07:23:05 51°13.695 2°55.74 -999 -999 -999 -999 -999
2008-03-07 07:23:10 51°13.697 2°55.74 -999 -999 -999 -999 -999
2008-03-07 07:23:15 51°13.7 2°55.741 -999 -999 -999 -999 -999
2008-03-07 07:23:20 51°13.703 2°55.741 -999 -999 -999 -999 -999
2008-03-07 07:23:25 51°13.706 2°55.74 -999 -999 -999 -999 -999
2008-03-07 07:23:30 51°13.71 2°55.74 -999 -999 -999 -999 -999
2008-03-07 07:23:35 51°13.714 2°55.738 -999 -999 -999 -999 -999
2008-03-07 07:23:40 51°13.718 2°55.736 -999 -999 -999 -999 -999
2008-03-07 07:23:45 51°13.722 2°55.733 -999 -999 -999 -999 -999
2008-03-07 07:23:50 51°13.726 2°55.729 -999 -999 -999 -999 -999
2008-03-07 07:23:55 51°13.731 2°55.725 -999 -999 -999 -999 -999
2008-03-07 07:24:00 51°13.736 2°55.72 -999 -999 -999 -999 -999
2008-03-07 07:24:05 51°13.741 2°55.714 -999 -999 -999 -999 -999
2008-03-07 07:24:10 51°13.746 2°55.709 -999 -999 -999 -999 -999
2008-03-07 07:24:15 51°13.752 2°55.703 -999 -999 -999 -999 -999
2008-03-07 07:24:20 51°13.758 2°55.696 -999 -999 -999 -999 -999
2008-03-07 07:24:25 51°13.765 2°55.689 -999 -999 -999 -999 -999
2008-03-07 07:24:30 51°13.772 2°55.682 -999 -999 -999 -999 -999
2008-03-07 07:24:35 51°13.779 2°55.675 -999 -999 -999 -999 -999
2008-03-07 07:24:40 51°13.787 2°55.668 -999 -999 -999 -999 -999
2008-03-07 07:24:45 51°13.796 2°55.66 -999 -999 -999 -999 -999
2008-03-07 07:24:50 51°13.804 2°55.653 -999 -999 -999 -999 -999
2008-03-07 07:24:55 51°13.813 2°55.645 -999 -999 -999 -999 -999
2008-03-07 07:25:00 51°13.822 2°55.638 -999 -999 -999 -999 -999
2008-03-07 07:25:05 51°13.832 2°55.63 -999 -999 -999 -999 -999
2008-03-07 07:25:10 51°13.842 2°55.622 -999 -999 -999 -999 -999
2008-03-07 07:25:15 51°13.851 2°55.614 -999 -999 -999 -999 -999
2008-03-07 07:25:20 51°13.862 2°55.606 -999 -999 -999 -999 -999
2008-03-07 07:25:25 51°13.872 2°55.598 -999 -999 -999 -999 -999
2008-03-07 07:25:30 51°13.883 2°55.589 -999 -999 -999 -999 -999
2008-03-07 07:25:35 51°13.895 2°55.581 -999 -999 -999 -999 -999
2008-03-07 07:25:40 51°13.906 2°55.573 -999 -999 -999 -999 -999
2008-03-07 07:25:45 51°13.918 2°55.564 -999 -999 -999 -999 -999
2008-03-07 07:25:50 51°13.929 2°55.555 -999 -999 -999 -999 -999
2008-03-07 07:25:55 51°13.941 2°55.546 -999 -999 -999 -999 -999
2008-03-07 07:26:00 51°13.953 2°55.537 -999 -999 -999 -999 -999
2008-03-07 07:26:05 51°13.966 2°55.528 -999 -999 -999 -999 -999
2008-03-07 07:26:10 51°13.978 2°55.519 -999 -999 -999 -999 -999
2008-03-07 07:26:15 51°13.99 2°55.51 -999 -999 -999 -999 -999
2008-03-07 07:26:20 51°14.003 2°55.501 -999 -999 -999 -999 -999
2008-03-07 07:26:25 51°14.015 2°55.492 -999 -999 -999 -999 -999
2008-03-07 07:26:30 51°14.027 2°55.482 -999 -999 -999 -999 -999
2008-03-07 07:26:35 51°14.039 2°55.473 -999 -999 -999 -999 -999
2008-03-07 07:26:40 51°14.052 2°55.464 -999 -999 -999 -999 -999
2008-03-07 07:26:45 51°14.064 2°55.455 -999 -999 -999 -999 -999
2008-03-07 07:26:50 51°14.076 2°55.445 -999 -999 -999 -999 -999
2008-03-07 07:26:55 51°14.089 2°55.435 -999 -999 -999 -999 -999
2008-03-07 07:27:00 51°14.101 2°55.426 -999 -999 -999 -999 -999
2008-03-07 07:27:05 51°14.114 2°55.416 -999 -999 -999 -999 -999
2008-03-07 07:27:10 51°14.126 2°55.406 -999 -999 -999 -999 -999
2008-03-07 07:27:15 51°14.138 2°55.397 -999 -999 -999 -999 -999
2008-03-07 07:27:20 51°14.15 2°55.387 -999 -999 -999 -999 -999
2008-03-07 07:27:25 51°14.162 2°55.377 -999 -999 -999 -999 -999
2008-03-07 07:27:30 51°14.173 2°55.366 -999 -999 -999 -999 -999
2008-03-07 07:27:35 51°14.185 2°55.355 -999 -999 -999 -999 -999
2008-03-07 07:27:40 51°14.196 2°55.344 -999 -999 -999 -999 -999
2008-03-07 07:27:45 51°14.207 2°55.333 -999 -999 -999 -999 -999
2008-03-07 07:27:50 51°14.218 2°55.321 -999 -999 -999 -999 -999
2008-03-07 07:27:55 51°14.229 2°55.309 -999 -999 -999 -999 -999
2008-03-07 07:28:00 51°14.24 2°55.296 -999 -999 -999 -999 -999
2008-03-07 07:28:05 51°14.25 2°55.283 -999 -999 -999 -999 -999
2008-03-07 07:28:10 51°14.261 2°55.269 -999 -999 -999 -999 -999
2008-03-07 07:28:15 51°14.271 2°55.254 -999 -999 -999 -999 -999
2008-03-07 07:28:20 51°14.28 2°55.239 -999 -999 -999 -999 -999
2008-03-07 07:28:25 51°14.29 2°55.223 -999 -999 -999 -999 -999
2008-03-07 07:28:30 51°14.299 2°55.207 -999 -999 -999 -999 -999
2008-03-07 07:28:35 51°14.308 2°55.191 -999 -999 -999 -999 -999
2008-03-07 07:28:40 51°14.317 2°55.174 -999 -999 -999 -999 -999
2008-03-07 07:28:45 51°14.325 2°55.157 -999 -999 -999 -999 -999
2008-03-07 07:28:50 51°14.335 2°55.14 -999 -999 -999 -999 -999
2008-03-07 07:28:55 51°14.344 2°55.123 -999 -999 -999 -999 -999
2008-03-07 07:29:00 51°14.352 2°55.105 -999 -999 -999 -999 -999
2008-03-07 07:29:05 51°14.361 2°55.086 -999 -999 -999 -999 -999
2008-03-07 07:29:10 51°14.37 2°55.068 -999 -999 -999 -999 -999
2008-03-07 07:29:15 51°14.378 2°55.049 -999 -999 -999 -999 -999
2008-03-07 07:29:20 51°14.387 2°55.029 -999 -999 -999 -999 -999
2008-03-07 07:29:25 51°14.395 2°55.009 -999 -999 -999 -999 -999
2008-03-07 07:29:30 51°14.404 2°54.989 -999 -999 -999 -999 -999
2008-03-07 07:29:35 51°14.412 2°54.969 -999 -999 -999 -999 -999
2008-03-07 07:29:40 51°14.422 2°54.949 -999 -999 -999 -999 -999
2008-03-07 07:29:45 51°14.431 2°54.928 -999 -999 -999 -999 -999
2008-03-07 07:29:50 51°14.442 2°54.908 -999 -999 -999 -999 -999
2008-03-07 07:29:55 51°14.452 2°54.888 -999 -999 -999 -999 -999
2008-03-07 07:30:00 51°14.463 2°54.869 -999 -999 -999 -999 -999
2008-03-07 07:30:05 51°14.474 2°54.849 -999 -999 -999 -999 -999
2008-03-07 07:30:10 51°14.486 2°54.83 -999 -999 -999 -999 -999
2008-03-07 07:30:15 51°14.498 2°54.812 -999 -999 -999 -999 -999
2008-03-07 07:30:20 51°14.511 2°54.794 -999 -999 -999 -999 -999
2008-03-07 07:30:25 51°14.523 2°54.777 -999 -999 -999 -999 -999
2008-03-07 07:30:30 51°14.536 2°54.76 -999 -999 -999 -999 -999
2008-03-07 07:30:35 51°14.549 2°54.743 -999 -999 -999 -999 -999
2008-03-07 07:30:40 51°14.563 2°54.728 -999 -999 -999 -999 -999
2008-03-07 07:30:45 51°14.577 2°54.713 -999 -999 -999 -999 -999
2008-03-07 07:30:50 51°14.592 2°54.7 -999 -999 -999 -999 -999
2008-03-07 07:30:55 51°14.607 2°54.688 -999 -999 -999 -999 -999
2008-03-07 07:31:00 51°14.622 2°54.678 -999 -999 -999 -999 -999
2008-03-07 07:31:05 51°14.638 2°54.669 -999 -999 -999 -999 -999
2008-03-07 07:31:10 51°14.654 2°54.663 -999 -999 -999 -999 -999
2008-03-07 07:31:15 51°14.67 2°54.658 -999 -999 -999 -999 -999
2008-03-07 07:31:20 51°14.686 2°54.655 -999 -999 -999 -999 -999
2008-03-07 07:31:25 51°14.702 2°54.654 -999 -999 -999 -999 -999
2008-03-07 07:31:30 51°14.719 2°54.654 -999 -999 -999 -999 -999
2008-03-07 07:31:35 51°14.735 2°54.655 -999 -999 -999 -999 -999
2008-03-07 07:31:40 51°14.751 2°54.658 -999 -999 -999 -999 -999
2008-03-07 07:31:45 51°14.768 2°54.659 -999 -999 -999 -999 -999
2008-03-07 07:31:50 51°14.784 2°54.663 -999 -999 -999 -999 -999
2008-03-07 07:31:55 51°14.8 2°54.665 -999 -999 -999 -999 -999
2008-03-07 07:32:00 51°14.817 2°54.668 -999 -999 -999 -999 -999
2008-03-07 07:32:05 51°14.833 2°54.67 -999 -999 -999 -999 -999
2008-03-07 07:32:10 51°14.849 2°54.673 -999 -999 -999 -999 -999
2008-03-07 07:32:15 51°14.865 2°54.676 -999 -999 -999 -999 -999
2008-03-07 07:32:20 51°14.882 2°54.678 -999 -999 -999 -999 -999
2008-03-07 07:32:25 51°14.898 2°54.681 -999 -999 -999 -999 -999
2008-03-07 07:32:30 51°14.914 2°54.683 -999 -999 -999 -999 -999
2008-03-07 07:32:35 51°14.93 2°54.687 -999 -999 -999 -999 -999
2008-03-07 07:32:40 51°14.946 2°54.689 -999 -999 -999 -999 -999
2008-03-07 07:32:45 51°14.962 2°54.693 -999 -999 -999 -999 -999
2008-03-07 07:32:50 51°14.978 2°54.695 -999 -999 -999 -999 -999
2008-03-07 07:32:55 51°14.994 2°54.698 -999 -999 -999 -999 -999
2008-03-07 07:33:00 51°15.01 2°54.7 -999 -999 -999 -999 -999
2008-03-07 07:33:05 51°15.025 2°54.703 -999 -999 -999 -999 -999
2008-03-07 07:33:10 51°15.041 2°54.705 -999 -999 -999 -999 -999
2008-03-07 07:33:15 51°15.057 2°54.708 -999 -999 -999 -999 -999
2008-03-07 07:33:20 51°15.072 2°54.71 -999 -999 -999 -999 -999
2008-03-07 07:33:25 51°15.088 2°54.713 -999 -999 -999 -999 -999
2008-03-07 07:33:30 51°15.104 2°54.716 -999 -999 -999 -999 -999
2008-03-07 07:33:35 51°15.119 2°54.718 -999 -999 -999 -999 -999
2008-03-07 07:33:40 51°15.135 2°54.719 -999 -999 -999 -999 -999
2008-03-07 07:33:45 51°15.15 2°54.721 -999 -999 -999 -999 -999
2008-03-07 07:33:50 51°15.165 2°54.722 -999 -999 -999 -999 -999
2008-03-07 07:33:55 51°15.181 2°54.723 -999 -999 -999 -999 -999
2008-03-07 07:34:00 51°15.197 2°54.724 -999 -999 -999 -999 -999
2008-03-07 07:34:05 51°15.212 2°54.727 -999 -999 -999 -999 -999
2008-03-07 07:34:10 51°15.228 2°54.729 -999 -999 -999 -999 -999
2008-03-07 07:34:15 51°15.244 2°54.732 -999 -999 -999 -999 -999
2008-03-07 07:34:20 51°15.26 2°54.735 -999 -999 -999 -999 -999
2008-03-07 07:34:25 51°15.275 2°54.738 -999 -999 -999 -999 -999
2008-03-07 07:34:30 51°15.291 2°54.741 -999 -999 -999 -999 -999
2008-03-07 07:34:35 51°15.307 2°54.744 -999 -999 -999 -999 -999
2008-03-07 07:34:40 51°15.323 2°54.746 -999 -999 -999 -999 -999
2008-03-07 07:34:45 51°15.338 2°54.75 -999 -999 -999 -999 -999
2008-03-07 07:34:50 51°15.354 2°54.753 -999 -999 -999 -999 -999
2008-03-07 07:34:55 51°15.37 2°54.757 -999 -999 -999 -999 -999
2008-03-07 07:35:00 51°15.386 2°54.761 -999 -999 -999 -999 -999
2008-03-07 07:35:05 51°15.402 2°54.765 -999 -999 -999 -999 -999
2008-03-07 07:35:10 51°15.417 2°54.769 -999 -999 -999 -999 -999
2008-03-07 07:35:15 51°15.433 2°54.773 -999 -999 -999 -999 -999
2008-03-07 07:35:20 51°15.449 2°54.777 -999 -999 -999 -999 -999
2008-03-07 07:35:25 51°15.465 2°54.782 -999 -999 -999 -999 -999
2008-03-07 07:35:30 51°15.481 2°54.785 -999 -999 -999 -999 -999
2008-03-07 07:35:35 51°15.497 2°54.789 -999 -999 -999 -999 -999
2008-03-07 07:35:40 51°15.512 2°54.793 -999 -999 -999 -999 -999
2008-03-07 07:35:45 51°15.528 2°54.797 -999 -999 -999 -999 -999
2008-03-07 07:35:50 51°15.544 2°54.802 -999 -999 -999 -999 -999
2008-03-07 07:35:55 51°15.56 2°54.807 -999 -999 -999 -999 -999
2008-03-07 07:36:00 51°15.576 2°54.813 -999 -999 -999 -999 -999
2008-03-07 07:36:05 51°15.591 2°54.818 -999 -999 -999 -999 -999
2008-03-07 07:36:10 51°15.607 2°54.824 -999 -999 -999 -999 -999
2008-03-07 07:36:15 51°15.622 2°54.831 -999 -999 -999 -999 -999
2008-03-07 07:36:20 51°15.637 2°54.838 -999 -999 -999 -999 -999
2008-03-07 07:36:25 51°15.652 2°54.847 -999 -999 -999 -999 -999
2008-03-07 07:36:30 51°15.667 2°54.855 -999 -999 -999 -999 -999
2008-03-07 07:36:35 51°15.682 2°54.864 -999 -999 -999 -999 -999
2008-03-07 07:36:40 51°15.697 2°54.873 -999 -999 -999 -999 -999
2008-03-07 07:36:45 51°15.712 2°54.881 -999 -999 -999 -999 -999
2008-03-07 07:36:50 51°15.726 2°54.891 -999 -999 -999 -999 -999
2008-03-07 07:36:55 51°15.741 2°54.9 -999 -999 -999 -999 -999
2008-03-07 07:37:00 51°15.756 2°54.909 -999 -999 -999 -999 -999
2008-03-07 07:37:05 51°15.77 2°54.92 -999 -999 -999 -999 -999
2008-03-07 07:37:10 51°15.783 2°54.933 -999 -999 -999 -999 -999
2008-03-07 07:37:15 51°15.797 2°54.946 -999 -999 -999 -999 -999
2008-03-07 07:37:20 51°15.809 2°54.96 -999 -999 -999 -999 -999
2008-03-07 07:37:25 51°15.821 2°54.977 -999 -999 -999 -999 -999
2008-03-07 07:37:30 51°15.831 2°54.995 -999 -999 -999 -999 -999
2008-03-07 07:37:35 51°15.841 2°55.013 -999 -999 -999 -999 -999
2008-03-07 07:37:40 51°15.851 2°55.033 -999 -999 -999 -999 -999
2008-03-07 07:37:45 51°15.859 2°55.053 -999 -999 -999 -999 -999
2008-03-07 07:37:50 51°15.867 2°55.075 -999 -999 -999 -999 -999
2008-03-07 07:37:55 51°15.875 2°55.096 -999 -999 -999 -999 -999
2008-03-07 07:38:00 51°15.882 2°55.118 -999 -999 -999 -999 -999
2008-03-07 07:38:05 51°15.89 2°55.14 -999 -999 -999 -999 -999
2008-03-07 07:38:10 51°15.897 2°55.163 -999 -999 -999 -999 -999
2008-03-07 07:38:15 51°15.904 2°55.185 -999 -999 -999 -999 -999
2008-03-07 07:38:20 51°15.911 2°55.207 -999 -999 -999 -999 -999
2008-03-07 07:38:25 51°15.918 2°55.229 -999 -999 -999 -999 -999
2008-03-07 07:38:30 51°15.926 2°55.251 -999 -999 -999 -999 -999
2008-03-07 07:38:35 51°15.933 2°55.273 -999 -999 -999 -999 -999
2008-03-07 07:38:40 51°15.941 2°55.295 -999 -999 -999 -999 -999
2008-03-07 07:38:45 51°15.948 2°55.317 -999 -999 -999 -999 -999
2008-03-07 07:38:50 51°15.956 2°55.339 -999 -999 -999 -999 -999
2008-03-07 07:38:55 51°15.963 2°55.361 -999 -999 -999 -999 -999
2008-03-07 07:39:00 51°15.97 2°55.383 -999 -999 -999 -999 -999
2008-03-07 07:39:05 51°15.978 2°55.405 -999 -999 -999 -999 -999
2008-03-07 07:39:10 51°15.986 2°55.427 -999 -999 -999 -999 -999
2008-03-07 07:39:15 51°15.993 2°55.449 -999 -999 -999 -999 -999
2008-03-07 07:39:20 51°16.001 2°55.47 -999 -999 -999 -999 -999
2008-03-07 07:39:25 51°16.01 2°55.491 -999 -999 -999 -999 -999
2008-03-07 07:39:30 51°16.018 2°55.513 -999 -999 -999 -999 -999
2008-03-07 07:39:35 51°16.026 2°55.534 -999 -999 -999 -999 -999
2008-03-07 07:39:40 51°16.034 2°55.555 -999 -999 -999 -999 -999
2008-03-07 07:39:45 51°16.043 2°55.576 -999 -999 -999 -999 -999
2008-03-07 07:39:50 51°16.051 2°55.598 -999 -999 -999 -999 -999
2008-03-07 07:39:55 51°16.058 2°55.62 -999 -999 -999 -999 -999
2008-03-07 07:40:00 51°16.066 2°55.642 -999 -999 -999 -999 -999
2008-03-07 07:40:05 51°16.072 2°55.664 -999 -999 -999 -999 -999
2008-03-07 07:40:10 51°16.079 2°55.687 -999 -999 -999 -999 -999
2008-03-07 07:40:15 51°16.086 2°55.709 -999 -999 -999 -999 -999
2008-03-07 07:40:20 51°16.093 2°55.732 -999 -999 -999 -999 -999
2008-03-07 07:40:25 51°16.1 2°55.754 -999 -999 -999 -999 -999
2008-03-07 07:40:30 51°16.107 2°55.777 -999 -999 -999 -999 -999
2008-03-07 07:40:35 51°16.113 2°55.799 -999 -999 -999 -999 -999
2008-03-07 07:40:40 51°16.121 2°55.821 -999 -999 -999 -999 -999
2008-03-07 07:40:45 51°16.127 2°55.844 -999 -999 -999 -999 -999
2008-03-07 07:40:50 51°16.134 2°55.866 -999 -999 -999 -999 -999
2008-03-07 07:40:55 51°16.141 2°55.889 -999 -999 -999 -999 -999
2008-03-07 07:41:00 51°16.147 2°55.911 -999 -999 -999 -999 -999
2008-03-07 07:41:05 51°16.155 2°55.933 -999 -999 -999 -999 -999
2008-03-07 07:41:10 51°16.161 2°55.956 -999 -999 -999 -999 -999
2008-03-07 07:41:15 51°16.168 2°55.978 -999 -999 -999 -999 -999
2008-03-07 07:41:20 51°16.176 2°56 -999 -999 -999 -999 -999
2008-03-07 07:41:25 51°16.183 2°56.022 -999 -999 -999 -999 -999
2008-03-07 07:41:30 51°16.191 2°56.044 -999 -999 -999 -999 -999
2008-03-07 07:41:35 51°16.197 2°56.066 -999 -999 -999 -999 -999
2008-03-07 07:41:40 51°16.205 2°56.088 -999 -999 -999 -999 -999
2008-03-07 07:41:45 51°16.213 2°56.11 -999 -999 -999 -999 -999
2008-03-07 07:41:50 51°16.22 2°56.132 -999 -999 -999 -999 -999
2008-03-07 07:41:55 51°16.228 2°56.153 -999 -999 -999 -999 -999
2008-03-07 07:42:00 51°16.235 2°56.175 -999 -999 -999 -999 -999
2008-03-07 07:42:05 51°16.242 2°56.197 -999 -999 -999 -999 -999
2008-03-07 07:42:10 51°16.25 2°56.219 -999 -999 -999 -999 -999
2008-03-07 07:42:15 51°16.257 2°56.241 -999 -999 -999 -999 -999
2008-03-07 07:42:20 51°16.265 2°56.263 -999 -999 -999 -999 -999
2008-03-07 07:42:25 51°16.272 2°56.285 -999 -999 -999 -999 -999
2008-03-07 07:42:30 51°16.28 2°56.307 -999 -999 -999 -999 -999
2008-03-07 07:42:35 51°16.288 2°56.328 -999 -999 -999 -999 -999
2008-03-07 07:42:40 51°16.295 2°56.35 -999 -999 -999 -999 -999
2008-03-07 07:42:45 51°16.303 2°56.372 -999 -999 -999 -999 -999
2008-03-07 07:42:50 51°16.31 2°56.394 -999 -999 -999 -999 -999
2008-03-07 07:42:55 51°16.317 2°56.416 -999 -999 -999 -999 -999
2008-03-07 07:43:00 51°16.324 2°56.439 -999 -999 -999 -999 -999
2008-03-07 07:43:05 51°16.331 2°56.461 -999 -999 -999 -999 -999
2008-03-07 07:43:10 51°16.338 2°56.484 -999 -999 -999 -999 -999
2008-03-07 07:43:15 51°16.346 2°56.505 -999 -999 -999 -999 -999
2008-03-07 07:43:20 51°16.352 2°56.528 -999 -999 -999 -999 -999
2008-03-07 07:43:25 51°16.36 2°56.55 -999 -999 -999 -999 -999
2008-03-07 07:43:30 51°16.367 2°56.573 -999 -999 -999 -999 -999
2008-03-07 07:43:35 51°16.375 2°56.594 -999 -999 -999 -999 -999
2008-03-07 07:43:40 51°16.382 2°56.616 -999 -999 -999 -999 -999
2008-03-07 07:43:45 51°16.389 2°56.638 -999 -999 -999 -999 -999
2008-03-07 07:43:50 51°16.397 2°56.66 -999 -999 -999 -999 -999
2008-03-07 07:43:55 51°16.404 2°56.683 -999 -999 -999 -999 -999
2008-03-07 07:44:00 51°16.412 2°56.705 -999 -999 -999 -999 -999
2008-03-07 07:44:05 51°16.419 2°56.727 -999 -999 -999 -999 -999
2008-03-07 07:44:10 51°16.427 2°56.749 -999 -999 -999 -999 -999
2008-03-07 07:44:15 51°16.434 2°56.772 -999 -999 -999 -999 -999
2008-03-07 07:44:20 51°16.441 2°56.794 -999 -999 -999 -999 -999
2008-03-07 07:44:25 51°16.448 2°56.817 -999 -999 -999 -999 -999
2008-03-07 07:44:30 51°16.455 2°56.839 -999 -999 -999 -999 -999
2008-03-07 07:44:35 51°16.462 2°56.862 -999 -999 -999 -999 -999
2008-03-07 07:44:40 51°16.469 2°56.885 -999 -999 -999 -999 -999
2008-03-07 07:44:45 51°16.476 2°56.907 -999 -999 -999 -999 -999
2008-03-07 07:44:50 51°16.483 2°56.93 -999 -999 -999 -999 -999
2008-03-07 07:44:55 51°16.491 2°56.952 -999 -999 -999 -999 -999
2008-03-07 07:45:00 51°16.499 2°56.973 -999 -999 -999 -999 -999
2008-03-07 07:45:05 51°16.506 2°56.996 -999 -999 -999 -999 -999
2008-03-07 07:45:10 51°16.514 2°57.017 -999 -999 -999 -999 -999
2008-03-07 07:45:15 51°16.521 2°57.039 -999 -999 -999 -999 -999
2008-03-07 07:45:20 51°16.53 2°57.06 -999 -999 -999 -999 -999
2008-03-07 07:45:25 51°16.537 2°57.083 -999 -999 -999 -999 -999
2008-03-07 07:45:30 51°16.545 2°57.104 -999 -999 -999 -999 -999
2008-03-07 07:45:35 51°16.552 2°57.127 -999 -999 -999 -999 -999
2008-03-07 07:45:40 51°16.559 2°57.149 -999 -999 -999 -999 -999
2008-03-07 07:45:45 51°16.567 2°57.171 -999 -999 -999 -999 -999
2008-03-07 07:45:50 51°16.574 2°57.193 -999 -999 -999 -999 -999
2008-03-07 07:45:55 51°16.582 2°57.215 -999 -999 -999 -999 -999
2008-03-07 07:46:00 51°16.589 2°57.237 -999 -999 -999 -999 -999
2008-03-07 07:46:05 51°16.598 2°57.259 -999 -999 -999 -999 -999
2008-03-07 07:46:10 51°16.605 2°57.281 -999 -999 -999 -999 -999
2008-03-07 07:46:15 51°16.613 2°57.303 -999 -999 -999 -999 -999
2008-03-07 07:46:20 51°16.622 2°57.324 -999 -999 -999 -999 -999
2008-03-07 07:46:25 51°16.628 2°57.347 -999 -999 -999 -999 -999
2008-03-07 07:46:30 51°16.637 2°57.368 -999 -999 -999 -999 -999
2008-03-07 07:46:35 51°16.644 2°57.39 -999 -999 -999 -999 -999
2008-03-07 07:46:40 51°16.651 2°57.413 -999 -999 -999 -999 -999
2008-03-07 07:46:45 51°16.658 2°57.435 -999 -999 -999 -999 -999
2008-03-07 07:46:50 51°16.665 2°57.458 -999 -999 -999 -999 -999
2008-03-07 07:46:55 51°16.673 2°57.48 -999 -999 -999 -999 -999
2008-03-07 07:47:00 51°16.68 2°57.503 -999 -999 -999 -999 -999
2008-03-07 07:47:05 51°16.687 2°57.525 -999 -999 -999 -999 -999
2008-03-07 07:47:10 51°16.694 2°57.548 -999 -999 -999 -999 -999
2008-03-07 07:47:15 51°16.702 2°57.57 -999 -999 -999 -999 -999
2008-03-07 07:47:20 51°16.709 2°57.593 -999 -999 -999 -999 -999
2008-03-07 07:47:25 51°16.717 2°57.614 -999 -999 -999 -999 -999
2008-03-07 07:47:30 51°16.724 2°57.637 -999 -999 -999 -999 -999
2008-03-07 07:47:35 51°16.732 2°57.659 -999 -999 -999 -999 -999
2008-03-07 07:47:40 51°16.74 2°57.681 -999 -999 -999 -999 -999
2008-03-07 07:47:45 51°16.748 2°57.703 -999 -999 -999 -999 -999
2008-03-07 07:47:50 51°16.756 2°57.725 -999 -999 -999 -999 -999
2008-03-07 07:47:55 51°16.764 2°57.746 -999 -999 -999 -999 -999
2008-03-07 07:48:00 51°16.771 2°57.769 -999 -999 -999 -999 -999
2008-03-07 07:48:05 51°16.78 2°57.79 -999 -999 -999 -999 -999
2008-03-07 07:48:10 51°16.787 2°57.813 -999 -999 -999 -999 -999
2008-03-07 07:48:15 51°16.794 2°57.835 -999 -999 -999 -999 -999
2008-03-07 07:48:20 51°16.801 2°57.858 -999 -999 -999 -999 -999
2008-03-07 07:48:25 51°16.809 2°57.88 -999 -999 -999 -999 -999
2008-03-07 07:48:30 51°16.816 2°57.903 -999 -999 -999 -999 -999
2008-03-07 07:48:36 51°16.825 2°57.93 -999 -999 -999 -999 -999
2008-03-07 07:48:40 51°16.831 2°57.948 -999 -999 -999 -999 -999
2008-03-07 07:48:45 51°16.838 2°57.97 -999 -999 -999 -999 -999
2008-03-07 07:48:50 51°16.846 2°57.992 -999 -999 -999 -999 -999
2008-03-07 07:48:55 51°16.854 2°58.014 -999 -999 -999 -999 -999
2008-03-07 07:49:00 51°16.861 2°58.037 -999 -999 -999 -999 -999
2008-03-07 07:49:05 51°16.868 2°58.059 -999 -999 -999 -999 -999
2008-03-07 07:49:10 51°16.875 2°58.082 -999 -999 -999 -999 -999
2008-03-07 07:49:15 51°16.883 2°58.104 -999 -999 -999 -999 -999
2008-03-07 07:49:20 51°16.89 2°58.127 -999 -999 -999 -999 -999
2008-03-07 07:49:25 51°16.897 2°58.149 -999 -999 -999 -999 -999
2008-03-07 07:49:30 51°16.905 2°58.172 -999 -999 -999 -999 -999
2008-03-07 07:49:35 51°16.912 2°58.194 -999 -999 -999 -999 -999
2008-03-07 07:49:40 51°16.92 2°58.217 -999 -999 -999 -999 -999
2008-03-07 07:49:45 51°16.927 2°58.239 -999 -999 -999 -999 -999
2008-03-07 07:49:50 51°16.934 2°58.262 -999 -999 -999 -999 -999
2008-03-07 07:49:55 51°16.942 2°58.284 -999 -999 -999 -999 -999
2008-03-07 07:50:00 51°16.949 2°58.307 -999 -999 -999 -999 -999
2008-03-07 07:50:05 51°16.957 2°58.329 -999 -999 -999 -999 -999
2008-03-07 07:50:10 51°16.964 2°58.352 -999 -999 -999 -999 -999
2008-03-07 07:50:15 51°16.972 2°58.374 -999 -999 -999 -999 -999
2008-03-07 07:50:20 51°16.98 2°58.396 -999 -999 -999 -999 -999
2008-03-07 07:50:25 51°16.987 2°58.419 -999 -999 -999 -999 -999
2008-03-07 07:50:30 51°16.996 2°58.44 -999 -999 -999 -999 -999
2008-03-07 07:50:35 51°17.004 2°58.463 -999 -999 -999 -999 -999
2008-03-07 07:50:40 51°17.012 2°58.484 -999 -999 -999 -999 -999
2008-03-07 07:50:45 51°17.02 2°58.506 -999 -999 -999 -999 -999
2008-03-07 07:50:50 51°17.028 2°58.528 -999 -999 -999 -999 -999
2008-03-07 07:50:56 51°17.037 2°58.554 -999 -999 -999 -999 -999
2008-03-07 07:51:00 51°17.043 2°58.572 -999 -999 -999 -999 -999
2008-03-07 07:51:05 51°17.052 2°58.594 -999 -999 -999 -999 -999
2008-03-07 07:51:10 51°17.059 2°58.616 -999 -999 -999 -999 -999
2008-03-07 07:51:15 51°17.067 2°58.638 -999 -999 -999 -999 -999
2008-03-07 07:51:20 51°17.074 2°58.66 -999 -999 -999 -999 -999
2008-03-07 07:51:25 51°17.082 2°58.683 -999 -999 -999 -999 -999
2008-03-07 07:51:30 51°17.089 2°58.705 -999 -999 -999 -999 -999
2008-03-07 07:51:35 51°17.097 2°58.727 -999 -999 -999 -999 -999
2008-03-07 07:51:40 51°17.103 2°58.75 -999 -999 -999 -999 -999
2008-03-07 07:51:45 51°17.111 2°58.772 -999 -999 -999 -999 -999
2008-03-07 07:51:50 51°17.117 2°58.795 -999 -999 -999 -999 -999
2008-03-07 07:51:55 51°17.125 2°58.817 -999 -999 -999 -999 -999
2008-03-07 07:52:00 51°17.132 2°58.839 -999 -999 -999 -999 -999
2008-03-07 07:52:05 51°17.139 2°58.862 -999 -999 -999 -999 -999
2008-03-07 07:52:10 51°17.147 2°58.885 -999 -999 -999 -999 -999
2008-03-07 07:52:15 51°17.154 2°58.907 -999 -999 -999 -999 -999
2008-03-07 07:52:20 51°17.162 2°58.929 -999 -999 -999 -999 -999
2008-03-07 07:52:25 51°17.169 2°58.951 -999 -999 -999 -999 -999
2008-03-07 07:52:30 51°17.177 2°58.974 -999 -999 -999 -999 -999
2008-03-07 07:52:35 51°17.185 2°58.997 -999 -999 -999 -999 -999
2008-03-07 07:52:40 51°17.192 2°59.019 -999 -999 -999 -999 -999
2008-03-07 07:52:45 51°17.199 2°59.042 -999 -999 -999 -999 -999
2008-03-07 07:52:50 51°17.208 2°59.064 -999 -999 -999 -999 -999
2008-03-07 07:52:55 51°17.214 2°59.087 -999 -999 -999 -999 -999
2008-03-07 07:53:00 51°17.222 2°59.109 -999 -999 -999 -999 -999
2008-03-07 07:53:05 51°17.23 2°59.131 -999 -999 -999 -999 -999
2008-03-07 07:53:10 51°17.238 2°59.154 -999 -999 -999 -999 -999
2008-03-07 07:53:16 51°17.248 2°59.18 -999 -999 -999 -999 -999
2008-03-07 07:53:20 51°17.254 2°59.199 -999 -999 -999 -999 -999
2008-03-07 07:53:25 51°17.262 2°59.22 -999 -999 -999 -999 -999
2008-03-07 07:53:30 51°17.27 2°59.242 -999 -999 -999 -999 -999
2008-03-07 07:53:35 51°17.277 2°59.264 -999 -999 -999 -999 -999
2008-03-07 07:53:40 51°17.285 2°59.286 -999 -999 -999 -999 -999
2008-03-07 07:53:45 51°17.291 2°59.308 -999 -999 -999 -999 -999
2008-03-07 07:53:50 51°17.298 2°59.33 -999 -999 -999 -999 -999
2008-03-07 07:53:55 51°17.306 2°59.351 -999 -999 -999 -999 -999
2008-03-07 07:54:00 51°17.313 2°59.372 -999 -999 -999 -999 -999
2008-03-07 07:54:05 51°17.32 2°59.392 -999 -999 -999 -999 -999
2008-03-07 07:54:10 51°17.327 2°59.412 -999 -999 -999 -999 -999
2008-03-07 07:54:15 51°17.334 2°59.432 -999 -999 -999 -999 -999
2008-03-07 07:54:20 51°17.342 2°59.452 -999 -999 -999 -999 -999
2008-03-07 07:54:25 51°17.348 2°59.472 -999 -999 -999 -999 -999
2008-03-07 07:54:30 51°17.356 2°59.491 -999 -999 -999 -999 -999
2008-03-07 07:54:35 51°17.362 2°59.511 -999 -999 -999 -999 -999
2008-03-07 07:54:40 51°17.37 2°59.53 -999 -999 -999 -999 -999
2008-03-07 07:54:45 51°17.375 2°59.549 -999 -999 -999 -999 -999
2008-03-07 07:54:50 51°17.382 2°59.567 -999 -999 -999 -999 -999
2008-03-07 07:54:55 51°17.388 2°59.585 -999 -999 -999 -999 -999
2008-03-07 07:55:00 51°17.394 2°59.603 -999 -999 -999 -999 -999
2008-03-07 07:55:05 51°17.4 2°59.62 -999 -999 -999 -999 -999
2008-03-07 07:55:10 51°17.406 2°59.637 -999 -999 -999 -999 -999
2008-03-07 07:55:15 51°17.412 2°59.654 -999 -999 -999 -999 -999
2008-03-07 07:55:20 51°17.417 2°59.67 -999 -999 -999 -999 -999
2008-03-07 07:55:25 51°17.423 2°59.687 -999 -999 -999 -999 -999
2008-03-07 07:55:30 51°17.429 2°59.703 -999 -999 -999 -999 -999
2008-03-07 07:55:36 51°17.436 2°59.723 -999 -999 -999 -999 -999
2008-03-07 07:55:40 51°17.44 2°59.736 -999 -999 -999 -999 -999
2008-03-07 07:55:45 51°17.446 2°59.752 -999 -999 -999 -999 -999
2008-03-07 07:55:50 51°17.451 2°59.768 -999 -999 -999 -999 -999
2008-03-07 07:55:55 51°17.457 2°59.784 -999 -999 -999 -999 -999
2008-03-07 07:56:00 51°17.462 2°59.8 -999 -999 -999 -999 -999
2008-03-07 07:56:05 51°17.468 2°59.816 -999 -999 -999 -999 -999
2008-03-07 07:56:10 51°17.474 2°59.832 -999 -999 -999 -999 -999
2008-03-07 07:56:15 51°17.479 2°59.848 -999 -999 -999 -999 -999
2008-03-07 07:56:20 51°17.485 2°59.864 -999 -999 -999 -999 -999
2008-03-07 07:56:25 51°17.49 2°59.88 -999 -999 -999 -999 -999
2008-03-07 07:56:30 51°17.496 2°59.896 -999 -999 -999 -999 -999
2008-03-07 07:56:35 51°17.501 2°59.912 -999 -999 -999 -999 -999
2008-03-07 07:56:40 51°17.507 2°59.928 -999 -999 -999 -999 -999
2008-03-07 07:56:45 51°17.512 2°59.944 -999 -999 -999 -999 -999
2008-03-07 07:56:50 51°17.518 2°59.96 -999 -999 -999 -999 -999
2008-03-07 07:56:55 51°17.523 2°59.976 -999 -999 -999 -999 -999
2008-03-07 07:57:00 51°17.528 2°59.992 -999 -999 -999 -999 -999
2008-03-07 07:57:05 51°17.534 3°0.008 -999 -999 -999 -999 -999
2008-03-07 07:57:10 51°17.539 3°0.024 -999 -999 -999 -999 -999
2008-03-07 07:57:15 51°17.545 3°0.04 -999 -999 -999 -999 -999
2008-03-07 07:57:20 51°17.55 3°0.056 -999 -999 -999 -999 -999
2008-03-07 07:57:25 51°17.556 3°0.072 -999 -999 -999 -999 -999
2008-03-07 07:57:30 51°17.561 3°0.088 -999 -999 -999 -999 -999
2008-03-07 07:57:35 51°17.566 3°0.103 -999 -999 -999 -999 -999
2008-03-07 07:57:40 51°17.572 3°0.12 -999 -999 -999 -999 -999
2008-03-07 07:57:45 51°17.578 3°0.136 -999 -999 -999 -999 -999
2008-03-07 07:57:50 51°17.583 3°0.152 -999 -999 -999 -999 -999
2008-03-07 07:57:55 51°17.588 3°0.168 -999 -999 -999 -999 -999
2008-03-07 07:58:00 51°17.594 3°0.184 -999 -999 -999 -999 -999
2008-03-07 07:58:05 51°17.599 3°0.2 -999 -999 -999 -999 -999
2008-03-07 07:58:10 51°17.605 3°0.216 -999 -999 -999 -999 -999
2008-03-07 07:58:15 51°17.61 3°0.232 -999 -999 -999 -999 -999
2008-03-07 07:58:20 51°17.616 3°0.248 -999 -999 -999 -999 -999
2008-03-07 07:58:25 51°17.621 3°0.264 -999 -999 -999 -999 -999
2008-03-07 07:58:30 51°17.626 3°0.28 -999 -999 -999 -999 -999
2008-03-07 07:58:35 51°17.632 3°0.296 -999 -999 -999 -999 -999
2008-03-07 07:58:40 51°17.638 3°0.312 -999 -999 -999 -999 -999
2008-03-07 07:58:45 51°17.643 3°0.328 -999 -999 -999 -999 -999
2008-03-07 07:58:50 51°17.649 3°0.345 -999 -999 -999 -999 -999
2008-03-07 07:58:55 51°17.654 3°0.36 -999 -999 -999 -999 -999
2008-03-07 07:59:00 51°17.66 3°0.377 -999 -999 -999 -999 -999
2008-03-07 07:59:05 51°17.665 3°0.393 -999 -999 -999 -999 -999
2008-03-07 07:59:10 51°17.671 3°0.409 -999 -999 -999 -999 -999
2008-03-07 07:59:15 51°17.677 3°0.425 -999 -999 -999 -999 -999
2008-03-07 07:59:20 51°17.682 3°0.441 -999 -999 -999 -999 -999
2008-03-07 07:59:25 51°17.688 3°0.457 -999 -999 -999 -999 -999
2008-03-07 07:59:30 51°17.693 3°0.473 -999 -999 -999 -999 -999
2008-03-07 07:59:35 51°17.699 3°0.489 -999 -999 -999 -999 -999
2008-03-07 07:59:40 51°17.704 3°0.505 -999 -999 -999 -999 -999
2008-03-07 07:59:45 51°17.71 3°0.522 -999 -999 -999 -999 -999
2008-03-07 07:59:50 51°17.715 3°0.537 -999 -999 -999 -999 -999
2008-03-07 07:59:55 51°17.721 3°0.554 -999 -999 -999 -999 -999
2008-03-07 08:00:00 51°17.727 3°0.569 -999 -999 -999 -999 -999
2008-03-07 08:00:05 51°17.732 3°0.586 -999 -999 -999 -999 -999
2008-03-07 08:00:10 51°17.737 3°0.602 -999 -999 -999 -999 -999
2008-03-07 08:00:15 51°17.743 3°0.617 -999 -999 -999 -999 -999
2008-03-07 08:00:20 51°17.748 3°0.633 -999 -999 -999 -999 -999
2008-03-07 08:00:25 51°17.754 3°0.649 -999 -999 -999 -999 -999
2008-03-07 08:00:30 51°17.759 3°0.666 -999 -999 -999 -999 -999
2008-03-07 08:00:35 51°17.765 3°0.681 -999 -999 -999 -999 -999
2008-03-07 08:00:40 51°17.77 3°0.698 -999 -999 -999 -999 -999
2008-03-07 08:00:45 51°17.775 3°0.713 -999 -999 -999 -999 -999
2008-03-07 08:00:50 51°17.781 3°0.73 -999 -999 -999 -999 -999
2008-03-07 08:00:55 51°17.786 3°0.745 -999 -999 -999 -999 -999
2008-03-07 08:01:00 51°17.792 3°0.762 -999 -999 -999 -999 -999
2008-03-07 08:01:05 51°17.797 3°0.777 -999 -999 -999 -999 -999
2008-03-07 08:01:10 51°17.803 3°0.793 -999 -999 -999 -999 -999
2008-03-07 08:01:15 51°17.808 3°0.81 -999 -999 -999 -999 -999
2008-03-07 08:01:20 51°17.814 3°0.825 -999 -999 -999 -999 -999
2008-03-07 08:01:25 51°17.819 3°0.841 -999 -999 -999 -999 -999
2008-03-07 08:01:30 51°17.824 3°0.856 -999 -999 -999 -999 -999
2008-03-07 08:01:35 51°17.829 3°0.871 -999 -999 -999 -999 -999
2008-03-07 08:01:40 51°17.834 3°0.885 -999 -999 -999 -999 -999
2008-03-07 08:01:45 51°17.839 3°0.9 -999 -999 -999 -999 -999
2008-03-07 08:01:50 51°17.844 3°0.915 -999 -999 -999 -999 -999
2008-03-07 08:01:55 51°17.849 3°0.929 -999 -999 -999 -999 -999
2008-03-07 08:02:00 51°17.853 3°0.943 -999 -999 -999 -999 -999
2008-03-07 08:02:05 51°17.858 3°0.957 -999 -999 -999 -999 -999
2008-03-07 08:02:10 51°17.862 3°0.971 -999 -999 -999 -999 -999
2008-03-07 08:02:15 51°17.867 3°0.984 -999 -999 -999 -999 -999
2008-03-07 08:02:20 51°17.871 3°0.998 -999 -999 -999 -999 -999
2008-03-07 08:02:25 51°17.876 3°1.011 -999 -999 -999 -999 -999
2008-03-07 08:02:30 51°17.88 3°1.025 -999 -999 -999 -999 -999
2008-03-07 08:02:35 51°17.884 3°1.038 -999 -999 -999 -999 -999
2008-03-07 08:02:40 51°17.889 3°1.051 -999 -999 -999 -999 -999
2008-03-07 08:02:45 51°17.893 3°1.065 -999 -999 -999 -999 -999
2008-03-07 08:02:50 51°17.898 3°1.078 -999 -999 -999 -999 -999
2008-03-07 08:02:55 51°17.902 3°1.091 -999 -999 -999 -999 -999
2008-03-07 08:03:00 51°17.907 3°1.104 -999 -999 -999 -999 -999
2008-03-07 08:03:05 51°17.911 3°1.118 -999 -999 -999 -999 -999
2008-03-07 08:03:10 51°17.916 3°1.131 -999 -999 -999 -999 -999
2008-03-07 08:03:15 51°17.92 3°1.144 -999 -999 -999 -999 -999
2008-03-07 08:03:20 51°17.924 3°1.157 -999 -999 -999 -999 -999
2008-03-07 08:03:25 51°17.929 3°1.17 -999 -999 -999 -999 -999
2008-03-07 08:03:30 51°17.933 3°1.184 -999 -999 -999 -999 -999
2008-03-07 08:03:35 51°17.937 3°1.197 -999 -999 -999 -999 -999
2008-03-07 08:03:40 51°17.942 3°1.21 -999 -999 -999 -999 -999
2008-03-07 08:03:45 51°17.946 3°1.223 -999 -999 -999 -999 -999
2008-03-07 08:03:50 51°17.95 3°1.236 -999 -999 -999 -999 -999
2008-03-07 08:03:55 51°17.955 3°1.249 -999 -999 -999 -999 -999
2008-03-07 08:04:00 51°17.959 3°1.262 -999 -999 -999 -999 -999
2008-03-07 08:04:05 51°17.964 3°1.275 -999 -999 -999 -999 -999
2008-03-07 08:04:10 51°17.968 3°1.289 -999 -999 -999 -999 -999
2008-03-07 08:04:15 51°17.973 3°1.301 -999 -999 -999 -999 -999
2008-03-07 08:04:20 51°17.976 3°1.314 -999 -999 -999 -999 -999
2008-03-07 08:04:25 51°17.981 3°1.327 -999 -999 -999 -999 -999
2008-03-07 08:04:30 51°17.985 3°1.34 -999 -999 -999 -999 -999
2008-03-07 08:04:35 51°17.99 3°1.353 -999 -999 -999 -999 -999
2008-03-07 08:04:40 51°17.994 3°1.367 -999 -999 -999 -999 -999
2008-03-07 08:04:45 51°17.998 3°1.379 -999 -999 -999 -999 -999
2008-03-07 08:04:50 51°18.003 3°1.392 -999 -999 -999 -999 -999
2008-03-07 08:04:55 51°18.007 3°1.405 -999 -999 -999 -999 -999
2008-03-07 08:05:00 51°18.011 3°1.418 -999 -999 -999 -999 -999
2008-03-07 08:05:05 51°18.016 3°1.431 -999 -999 -999 -999 -999
2008-03-07 08:05:10 51°18.02 3°1.445 -999 -999 -999 -999 -999
2008-03-07 08:05:15 51°18.025 3°1.458 -999 -999 -999 -999 -999
2008-03-07 08:05:20 51°18.029 3°1.471 -999 -999 -999 -999 -999
2008-03-07 08:05:25 51°18.033 3°1.484 -999 -999 -999 -999 -999
2008-03-07 08:05:30 51°18.038 3°1.497 -999 -999 -999 -999 -999
2008-03-07 08:05:35 51°18.042 3°1.51 -999 -999 -999 -999 -999
2008-03-07 08:05:40 51°18.047 3°1.523 -999 -999 -999 -999 -999
2008-03-07 08:05:45 51°18.051 3°1.536 -999 -999 -999 -999 -999
2008-03-07 08:05:50 51°18.056 3°1.549 -999 -999 -999 -999 -999
2008-03-07 08:05:55 51°18.06 3°1.562 -999 -999 -999 -999 -999
2008-03-07 08:06:00 51°18.064 3°1.575 -999 -999 -999 -999 -999
2008-03-07 08:06:05 51°18.069 3°1.588 -999 -999 -999 -999 -999
2008-03-07 08:06:10 51°18.073 3°1.601 -999 -999 -999 -999 -999
2008-03-07 08:06:15 51°18.077 3°1.614 -999 -999 -999 -999 -999
2008-03-07 08:06:20 51°18.082 3°1.627 -999 -999 -999 -999 -999
2008-03-07 08:06:25 51°18.086 3°1.64 -999 -999 -999 -999 -999
2008-03-07 08:06:30 51°18.09 3°1.654 -999 -999 -999 -999 -999
2008-03-07 08:06:35 51°18.094 3°1.666 -999 -999 -999 -999 -999
2008-03-07 08:06:40 51°18.098 3°1.678 -999 -999 -999 -999 -999
2008-03-07 08:06:45 51°18.101 3°1.69 -999 -999 -999 -999 -999
2008-03-07 08:06:50 51°18.105 3°1.701 -999 -999 -999 -999 -999
2008-03-07 08:06:55 51°18.108 3°1.712 -999 -999 -999 -999 -999
2008-03-07 08:07:00 51°18.111 3°1.722 -999 -999 -999 -999 -999
2008-03-07 08:07:05 51°18.114 3°1.732 -999 -999 -999 -999 -999
2008-03-07 08:07:10 51°18.117 3°1.741 -999 -999 -999 -999 -999
2008-03-07 08:07:15 51°18.12 3°1.75 -999 -999 -999 -999 -999
2008-03-07 08:07:20 51°18.122 3°1.759 -999 -999 -999 -999 -999
2008-03-07 08:07:25 51°18.124 3°1.768 -999 -999 -999 -999 -999
2008-03-07 08:07:30 51°18.126 3°1.776 -999 -999 -999 -999 -999
2008-03-07 08:07:35 51°18.129 3°1.784 -999 -999 -999 -999 -999
2008-03-07 08:07:40 51°18.131 3°1.792 -999 -999 -999 -999 -999
2008-03-07 08:07:45 51°18.133 3°1.799 -999 -999 -999 -999 -999
2008-03-07 08:07:50 51°18.135 3°1.806 -999 -999 -999 -999 -999
2008-03-07 08:07:55 51°18.137 3°1.814 -999 -999 -999 -999 -999
2008-03-07 08:08:00 51°18.139 3°1.82 -999 -999 -999 -999 -999
2008-03-07 08:08:05 51°18.141 3°1.827 -999 -999 -999 -999 -999
2008-03-07 08:08:10 51°18.143 3°1.833 -999 -999 -999 -999 -999
2008-03-07 08:08:15 51°18.145 3°1.839 -999 -999 -999 -999 -999
2008-03-07 08:08:20 51°18.147 3°1.845 -999 -999 -999 -999 -999
2008-03-07 08:08:25 51°18.149 3°1.851 -999 -999 -999 -999 -999
2008-03-07 08:08:30 51°18.15 3°1.857 -999 -999 -999 -999 -999
2008-03-07 08:08:35 51°18.152 3°1.862 -999 -999 -999 -999 -999
2008-03-07 08:08:40 51°18.154 3°1.868 -999 -999 -999 -999 -999
2008-03-07 08:08:45 51°18.156 3°1.874 -999 -999 -999 -999 -999
2008-03-07 08:08:50 51°18.157 3°1.879 -999 -999 -999 -999 -999
2008-03-07 08:08:55 51°18.159 3°1.885 -999 -999 -999 -999 -999
2008-03-07 08:09:00 51°18.161 3°1.89 -999 -999 -999 -999 -999
2008-03-07 08:09:05 51°18.163 3°1.895 -999 -999 -999 -999 -999
2008-03-07 08:09:10 51°18.164 3°1.901 -999 -999 -999 -999 -999
2008-03-07 08:09:15 51°18.166 3°1.906 -999 -999 -999 -999 -999
2008-03-07 08:09:20 51°18.167 3°1.911 -999 -999 -999 -999 -999
2008-03-07 08:09:25 51°18.169 3°1.916 -999 -999 -999 -999 -999
2008-03-07 08:09:30 51°18.17 3°1.921 -999 -999 -999 -999 -999
2008-03-07 08:09:35 51°18.171 3°1.926 -999 -999 -999 -999 -999
2008-03-07 08:09:40 51°18.173 3°1.93 -999 -999 -999 -999 -999
2008-03-07 08:09:45 51°18.175 3°1.935 -999 -999 -999 -999 -999
2008-03-07 08:09:50 51°18.176 3°1.94 -999 -999 -999 -999 -999
2008-03-07 08:09:55 51°18.178 3°1.944 -999 -999 -999 -999 -999
2008-03-07 08:10:00 51°18.179 3°1.949 -999 -999 -999 -999 -999
2008-03-07 08:10:05 51°18.181 3°1.954 -999 -999 -999 -999 -999
2008-03-07 08:10:10 51°18.183 3°1.96 -999 -999 -999 -999 -999
2008-03-07 08:10:15 51°18.185 3°1.965 -999 -999 -999 -999 -999
2008-03-07 08:10:20 51°18.187 3°1.97 -999 -999 -999 -999 -999
2008-03-07 08:10:25 51°18.189 3°1.976 -999 -999 -999 -999 -999
2008-03-07 08:10:30 51°18.191 3°1.982 -999 -999 -999 -999 -999
2008-03-07 08:10:35 51°18.193 3°1.988 -999 -999 -999 -999 -999
2008-03-07 08:10:40 51°18.195 3°1.993 -999 -999 -999 -999 -999
2008-03-07 08:10:45 51°18.197 3°2 -999 -999 -999 -999 -999
2008-03-07 08:10:50 51°18.199 3°2.006 -999 -999 -999 -999 -999
2008-03-07 08:10:55 51°18.201 3°2.012 -999 -999 -999 -999 -999
2008-03-07 08:11:00 51°18.204 3°2.018 -999 -999 -999 -999 -999
2008-03-07 08:11:05 51°18.206 3°2.025 -999 -999 -999 -999 -999
2008-03-07 08:11:10 51°18.208 3°2.031 -999 -999 -999 -999 -999
2008-03-07 08:11:15 51°18.211 3°2.038 -999 -999 -999 -999 -999
2008-03-07 08:11:20 51°18.213 3°2.044 -999 -999 -999 -999 -999
2008-03-07 08:11:25 51°18.215 3°2.051 -999 -999 -999 -999 -999
2008-03-07 08:11:30 51°18.218 3°2.057 -999 -999 -999 -999 -999
2008-03-07 08:11:35 51°18.22 3°2.064 -999 -999 -999 -999 -999
2008-03-07 08:11:40 51°18.222 3°2.071 -999 -999 -999 -999 -999
2008-03-07 08:11:45 51°18.225 3°2.077 -999 -999 -999 -999 -999
2008-03-07 08:11:50 51°18.227 3°2.084 -999 -999 -999 -999 -999
2008-03-07 08:11:55 51°18.23 3°2.091 -999 -999 -999 -999 -999
2008-03-07 08:12:00 51°18.232 3°2.098 -999 -999 -999 -999 -999
2008-03-07 08:12:05 51°18.235 3°2.105 -999 -999 -999 -999 -999
2008-03-07 08:12:10 51°18.237 3°2.112 -999 -999 -999 -999 -999
2008-03-07 08:12:15 51°18.24 3°2.119 -999 -999 -999 -999 -999
2008-03-07 08:12:20 51°18.242 3°2.126 -999 -999 -999 -999 -999
2008-03-07 08:12:25 51°18.244 3°2.133 -999 -999 -999 -999 -999
2008-03-07 08:12:30 51°18.247 3°2.139 -999 -999 -999 -999 -999
2008-03-07 08:12:35 51°18.249 3°2.146 -999 -999 -999 -999 -999
2008-03-07 08:12:40 51°18.252 3°2.153 -999 -999 -999 -999 -999
2008-03-07 08:12:45 51°18.254 3°2.16 -999 -999 -999 -999 -999
2008-03-07 08:12:50 51°18.257 3°2.167 -999 -999 -999 -999 -999
2008-03-07 08:12:55 51°18.259 3°2.174 -999 -999 -999 -999 -999
2008-03-07 08:13:00 51°18.261 3°2.182 -999 -999 -999 -999 -999
2008-03-07 08:13:05 51°18.264 3°2.19 -999 -999 -999 -999 -999
2008-03-07 08:13:10 51°18.268 3°2.198 -999 -999 -999 -999 -999
2008-03-07 08:13:15 51°18.271 3°2.207 -999 -999 -999 -999 -999
2008-03-07 08:13:20 51°18.274 3°2.216 -999 -999 -999 -999 -999
2008-03-07 08:13:25 51°18.278 3°2.226 -999 -999 -999 -999 -999
2008-03-07 08:13:30 51°18.282 3°2.237 -999 -999 -999 -999 -999
2008-03-07 08:13:35 51°18.286 3°2.249 -999 -999 -999 -999 -999
2008-03-07 08:13:40 51°18.291 3°2.261 -999 -999 -999 -999 -999
2008-03-07 08:13:45 51°18.296 3°2.274 -999 -999 -999 -999 -999
2008-03-07 08:13:50 51°18.3 3°2.286 -999 -999 -999 -999 -999
2008-03-07 08:13:55 51°18.306 3°2.3 -999 -999 -999 -999 -999
2008-03-07 08:14:00 51°18.311 3°2.313 -999 -999 -999 -999 -999
2008-03-07 08:14:05 51°18.316 3°2.327 -999 -999 -999 -999 -999
2008-03-07 08:14:10 51°18.321 3°2.342 -999 -999 -999 -999 -999
2008-03-07 08:14:15 51°18.327 3°2.356 -999 -999 -999 -999 -999
2008-03-07 08:14:20 51°18.332 3°2.37 -999 -999 -999 -999 -999
2008-03-07 08:14:25 51°18.338 3°2.385 -999 -999 -999 -999 -999
2008-03-07 08:14:30 51°18.343 3°2.4 -999 -999 -999 -999 -999
2008-03-07 08:14:35 51°18.349 3°2.414 -999 -999 -999 -999 -999
2008-03-07 08:14:40 51°18.354 3°2.429 -999 -999 -999 -999 -999
2008-03-07 08:14:45 51°18.36 3°2.444 -999 -999 -999 -999 -999
2008-03-07 08:14:50 51°18.365 3°2.459 -999 -999 -999 -999 -999
2008-03-07 08:14:55 51°18.37 3°2.475 -999 -999 -999 -999 -999
2008-03-07 08:15:00 51°18.375 3°2.491 -999 -999 -999 -999 -999
2008-03-07 08:15:05 51°18.378 3°2.507 -999 -999 -999 -999 -999
2008-03-07 08:15:10 51°18.383 3°2.523 -999 -999 -999 -999 -999
2008-03-07 08:15:15 51°18.386 3°2.54 -999 -999 -999 -999 -999
2008-03-07 08:15:20 51°18.39 3°2.556 -999 -999 -999 -999 -999
2008-03-07 08:15:25 51°18.394 3°2.573 -999 -999 -999 -999 -999
2008-03-07 08:15:30 51°18.397 3°2.589 -999 -999 -999 -999 -999
2008-03-07 08:15:35 51°18.401 3°2.606 -999 -999 -999 -999 -999
2008-03-07 08:15:40 51°18.404 3°2.623 -999 -999 -999 -999 -999
2008-03-07 08:15:45 51°18.408 3°2.64 -999 -999 -999 -999 -999
2008-03-07 08:15:50 51°18.412 3°2.656 -999 -999 -999 -999 -999
2008-03-07 08:15:55 51°18.415 3°2.673 -999 -999 -999 -999 -999
2008-03-07 08:16:00 51°18.419 3°2.69 -999 -999 -999 -999 -999
2008-03-07 08:16:05 51°18.423 3°2.706 -999 -999 -999 -999 -999
2008-03-07 08:16:10 51°18.426 3°2.723 -999 -999 -999 -999 -999
2008-03-07 08:16:15 51°18.429 3°2.739 -999 -999 -999 -999 -999
2008-03-07 08:16:20 51°18.433 3°2.755 -999 -999 -999 -999 -999
2008-03-07 08:16:25 51°18.436 3°2.772 -999 -999 -999 -999 -999
2008-03-07 08:16:30 51°18.438 3°2.789 -999 -999 -999 -999 -999
2008-03-07 08:16:35 51°18.441 3°2.805 -999 -999 -999 -999 -999
2008-03-07 08:16:40 51°18.442 3°2.823 -999 -999 -999 -999 -999
2008-03-07 08:16:45 51°18.444 3°2.839 -999 -999 -999 -999 -999
2008-03-07 08:16:50 51°18.446 3°2.856 -999 -999 -999 -999 -999
2008-03-07 08:16:55 51°18.449 3°2.872 -999 -999 -999 -999 -999
2008-03-07 08:17:00 51°18.451 3°2.889 -999 -999 -999 -999 -999
2008-03-07 08:17:05 51°18.454 3°2.906 -999 -999 -999 -999 -999
2008-03-07 08:17:10 51°18.456 3°2.922 -999 -999 -999 -999 -999
2008-03-07 08:17:15 51°18.459 3°2.939 -999 -999 -999 -999 -999
2008-03-07 08:17:20 51°18.462 3°2.955 -999 -999 -999 -999 -999
2008-03-07 08:17:25 51°18.465 3°2.972 -999 -999 -999 -999 -999
2008-03-07 08:17:30 51°18.468 3°2.988 -999 -999 -999 -999 -999
2008-03-07 08:17:35 51°18.471 3°3.005 -999 -999 -999 -999 -999
2008-03-07 08:17:40 51°18.474 3°3.021 -999 -999 -999 -999 -999
2008-03-07 08:17:45 51°18.478 3°3.037 -999 -999 -999 -999 -999
2008-03-07 08:17:50 51°18.481 3°3.053 -999 -999 -999 -999 -999
2008-03-07 08:17:55 51°18.485 3°3.069 -999 -999 -999 -999 -999
2008-03-07 08:18:00 51°18.489 3°3.085 -999 -999 -999 -999 -999
2008-03-07 08:18:05 51°18.493 3°3.101 -999 -999 -999 -999 -999
2008-03-07 08:18:10 51°18.497 3°3.116 -999 -999 -999 -999 -999
2008-03-07 08:18:15 51°18.502 3°3.132 -999 -999 -999 -999 -999
2008-03-07 08:18:20 51°18.506 3°3.148 -999 -999 -999 -999 -999
2008-03-07 08:18:25 51°18.51 3°3.163 -999 -999 -999 -999 -999
2008-03-07 08:18:30 51°18.514 3°3.179 -999 -999 -999 -999 -999
2008-03-07 08:18:35 51°18.518 3°3.194 -999 -999 -999 -999 -999
2008-03-07 08:18:40 51°18.522 3°3.21 -999 -999 -999 -999 -999
2008-03-07 08:18:45 51°18.526 3°3.226 -999 -999 -999 -999 -999
2008-03-07 08:18:50 51°18.531 3°3.242 -999 -999 -999 -999 -999
2008-03-07 08:18:55 51°18.535 3°3.257 -999 -999 -999 -999 -999
2008-03-07 08:19:00 51°18.539 3°3.273 -999 -999 -999 -999 -999
2008-03-07 08:19:05 51°18.543 3°3.289 -999 -999 -999 -999 -999
2008-03-07 08:19:10 51°18.547 3°3.305 -999 -999 -999 -999 -999
2008-03-07 08:19:15 51°18.551 3°3.32 -999 -999 -999 -999 -999
2008-03-07 08:19:20 51°18.555 3°3.336 -999 -999 -999 -999 -999
2008-03-07 08:19:25 51°18.559 3°3.351 -999 -999 -999 -999 -999
2008-03-07 08:19:30 51°18.563 3°3.367 -999 -999 -999 -999 -999
2008-03-07 08:19:35 51°18.567 3°3.382 -999 -999 -999 -999 -999
2008-03-07 08:19:40 51°18.571 3°3.398 -999 -999 -999 -999 -999
2008-03-07 08:19:45 51°18.575 3°3.414 -999 -999 -999 -999 -999
2008-03-07 08:19:50 51°18.579 3°3.429 -999 -999 -999 -999 -999
2008-03-07 08:19:55 51°18.583 3°3.445 -999 -999 -999 -999 -999
2008-03-07 08:20:00 51°18.587 3°3.461 -999 -999 -999 -999 -999
2008-03-07 08:20:05 51°18.591 3°3.476 -999 -999 -999 -999 -999
2008-03-07 08:20:10 51°18.595 3°3.492 -999 -999 -999 -999 -999
2008-03-07 08:20:15 51°18.599 3°3.508 -999 -999 -999 -999 -999
2008-03-07 08:20:20 51°18.603 3°3.524 -999 -999 -999 -999 -999
2008-03-07 08:20:25 51°18.607 3°3.54 -999 -999 -999 -999 -999
2008-03-07 08:20:30 51°18.611 3°3.555 -999 -999 -999 -999 -999
2008-03-07 08:20:35 51°18.615 3°3.571 -999 -999 -999 -999 -999
2008-03-07 08:20:40 51°18.618 3°3.586 -999 -999 -999 -999 -999
2008-03-07 08:20:45 51°18.622 3°3.6 -999 -999 -999 -999 -999
2008-03-07 08:20:50 51°18.624 3°3.614 -999 -999 -999 -999 -999
2008-03-07 08:20:55 51°18.626 3°3.627 -999 -999 -999 -999 -999
2008-03-07 08:21:00 51°18.627 3°3.641 -999 -999 -999 -999 -999
2008-03-07 08:21:05 51°18.627 3°3.653 -999 -999 -999 -999 -999
2008-03-07 08:21:10 51°18.627 3°3.666 -999 -999 -999 -999 -999
2008-03-07 08:21:15 51°18.626 3°3.678 -999 -999 -999 -999 -999
2008-03-07 08:21:20 51°18.624 3°3.689 -999 -999 -999 -999 -999
2008-03-07 08:21:25 51°18.623 3°3.7 -999 -999 -999 -999 -999
2008-03-07 08:21:30 51°18.62 3°3.711 -999 -999 -999 -999 -999
2008-03-07 08:21:35 51°18.618 3°3.722 -999 -999 -999 -999 -999
2008-03-07 08:21:40 51°18.616 3°3.732 -999 -999 -999 -999 -999
2008-03-07 08:21:45 51°18.614 3°3.742 -999 -999 -999 -999 -999
2008-03-07 08:21:50 51°18.612 3°3.753 -999 -999 -999 -999 -999
2008-03-07 08:21:55 51°18.61 3°3.763 -999 -999 -999 -999 -999
2008-03-07 08:22:00 51°18.608 3°3.772 -999 -999 -999 -999 -999
2008-03-07 08:22:05 51°18.607 3°3.781 -999 -999 -999 -999 -999
2008-03-07 08:22:10 51°18.605 3°3.789 -999 -999 -999 -999 -999
2008-03-07 08:22:15 51°18.604 3°3.796 -999 -999 -999 -999 -999
2008-03-07 08:22:20 51°18.603 3°3.803 -999 -999 -999 -999 -999
2008-03-07 08:22:25 51°18.601 3°3.81 -999 -999 -999 -999 -999
2008-03-07 08:22:30 51°18.599 3°3.815 -999 -999 -999 -999 -999
2008-03-07 08:22:35 51°18.598 3°3.818 -999 -999 -999 -999 -999
2008-03-07 08:22:40 51°18.596 3°3.821 -999 -999 -999 -999 -999
2008-03-07 08:22:45 51°18.595 3°3.823 -999 -999 -999 -999 -999
2008-03-07 08:22:50 51°18.594 3°3.824 -999 -999 -999 -999 -999
2008-03-07 08:22:55 51°18.593 3°3.824 -999 -999 -999 -999 -999
2008-03-07 08:23:00 51°18.592 3°3.823 -999 -999 -999 -999 -999
2008-03-07 08:23:05 51°18.592 3°3.823 -999 -999 -999 -999 -999
2008-03-07 08:23:10 51°18.591 3°3.822 -999 -999 -999 -999 -999
2008-03-07 08:23:15 51°18.591 3°3.821 -999 -999 -999 -999 -999
2008-03-07 08:23:20 51°18.591 3°3.82 -999 -999 -999 -999 -999
2008-03-07 08:23:25 51°18.591 3°3.82 -999 -999 -999 -999 -999
2008-03-07 08:23:30 51°18.591 3°3.819 -999 -999 -999 -999 -999
2008-03-07 08:23:35 51°18.59 3°3.818 -999 -999 -999 -999 -999
2008-03-07 08:23:40 51°18.59 3°3.817 -999 -999 -999 -999 -999
2008-03-07 08:23:45 51°18.59 3°3.816 -999 -999 -999 -999 -999
2008-03-07 08:23:50 51°18.59 3°3.816 -999 -999 -999 -999 -999
2008-03-07 08:23:55 51°18.59 3°3.815 -999 -999 -999 -999 -999
2008-03-07 08:24:00 51°18.59 3°3.814 -999 -999 -999 -999 -999
2008-03-07 08:24:05 51°18.59 3°3.813 -999 -999 -999 -999 -999
2008-03-07 08:24:10 51°18.59 3°3.812 -999 -999 -999 -999 -999
2008-03-07 08:24:15 51°18.59 3°3.811 -999 -999 -999 -999 -999
2008-03-07 08:24:20 51°18.589 3°3.811 -999 -999 -999 -999 -999
2008-03-07 08:24:25 51°18.589 3°3.81 -999 -999 -999 -999 -999
2008-03-07 08:24:30 51°18.589 3°3.809 -999 -999 -999 -999 -999
2008-03-07 08:24:36 51°18.589 3°3.808 -999 -999 -999 -999 -999
2008-03-07 08:24:40 51°18.589 3°3.807 -999 -999 -999 -999 -999
2008-03-07 08:24:45 51°18.589 3°3.806 -999 -999 -999 -999 -999
2008-03-07 08:24:50 51°18.589 3°3.805 -999 -999 -999 -999 -999
2008-03-07 08:24:55 51°18.589 3°3.804 -999 -999 -999 -999 -999
2008-03-07 08:25:00 51°18.589 3°3.803 -999 -999 -999 -999 -999
2008-03-07 08:25:05 51°18.589 3°3.802 -999 -999 -999 -999 -999
2008-03-07 08:25:10 51°18.589 3°3.801 -999 -999 -999 -999 -999
2008-03-07 08:25:16 51°18.589 3°3.8 -999 -999 -999 -999 -999
2008-03-07 08:25:20 51°18.589 3°3.799 -999 -999 -999 -999 -999
2008-03-07 08:25:25 51°18.589 3°3.798 -999 -999 -999 -999 -999
2008-03-07 08:25:30 51°18.589 3°3.797 -999 -999 -999 -999 -999
2008-03-07 08:25:35 51°18.589 3°3.796 -999 -999 -999 -999 -999
2008-03-07 08:25:40 51°18.588 3°3.795 -999 -999 -999 -999 -999
2008-03-07 08:25:45 51°18.589 3°3.794 -999 -999 -999 -999 -999
2008-03-07 08:25:50 51°18.589 3°3.793 -999 -999 -999 -999 -999
2008-03-07 08:25:55 51°18.589 3°3.792 -999 -999 -999 -999 -999
2008-03-07 08:26:00 51°18.589 3°3.791 -999 -999 -999 -999 -999
2008-03-07 08:26:05 51°18.589 3°3.79 -999 -999 -999 -999 -999
2008-03-07 08:26:10 51°18.589 3°3.789 -999 -999 -999 -999 -999
2008-03-07 08:26:15 51°18.589 3°3.788 -999 -999 -999 -999 -999
2008-03-07 08:26:20 51°18.589 3°3.787 -999 -999 -999 -999 -999
2008-03-07 08:26:25 51°18.589 3°3.786 -999 -999 -999 -999 -999
2008-03-07 08:26:30 51°18.589 3°3.785 -999 -999 -999 -999 -999
2008-03-07 08:26:35 51°18.59 3°3.784 -999 -999 -999 -999 -999
2008-03-07 08:26:40 51°18.59 3°3.783 -999 -999 -999 -999 -999
2008-03-07 08:26:45 51°18.59 3°3.782 -999 -999 -999 -999 -999
2008-03-07 08:26:50 51°18.59 3°3.781 -999 -999 -999 -999 -999
2008-03-07 08:26:56 51°18.59 3°3.78 -999 -999 -999 -999 -999
2008-03-07 08:27:00 51°18.59 3°3.779 -999 -999 -999 -999 -999
2008-03-07 08:27:05 51°18.59 3°3.778 -999 -999 -999 -999 -999
2008-03-07 08:27:10 51°18.59 3°3.777 -999 -999 -999 -999 -999
2008-03-07 08:27:15 51°18.59 3°3.776 -999 -999 -999 -999 -999
2008-03-07 08:27:20 51°18.59 3°3.775 -999 -999 -999 -999 -999
2008-03-07 08:27:25 51°18.59 3°3.774 -999 -999 -999 -999 -999
2008-03-07 08:27:30 51°18.59 3°3.773 -999 -999 -999 -999 -999
2008-03-07 08:27:35 51°18.59 3°3.772 -999 -999 -999 -999 -999
2008-03-07 08:27:40 51°18.59 3°3.771 -999 -999 -999 -999 -999
2008-03-07 08:27:45 51°18.591 3°3.77 -999 -999 -999 -999 -999
2008-03-07 08:27:50 51°18.591 3°3.769 -999 -999 -999 -999 -999
2008-03-07 08:27:55 51°18.591 3°3.768 -999 -999 -999 -999 -999
2008-03-07 08:28:00 51°18.591 3°3.767 -999 -999 -999 -999 -999
2008-03-07 08:28:05 51°18.591 3°3.766 -999 -999 -999 -999 -999
2008-03-07 08:28:10 51°18.591 3°3.765 -999 -999 -999 -999 -999
2008-03-07 08:28:15 51°18.591 3°3.764 -999 -999 -999 -999 -999
2008-03-07 08:28:20 51°18.591 3°3.762 -999 -999 -999 -999 -999
2008-03-07 08:28:25 51°18.591 3°3.761 -999 -999 -999 -999 -999
2008-03-07 08:28:30 51°18.591 3°3.76 -999 -999 -999 -999 -999
2008-03-07 08:28:35 51°18.591 3°3.759 -999 -999 -999 -999 -999
2008-03-07 08:28:40 51°18.592 3°3.758 -999 -999 -999 -999 -999
2008-03-07 08:28:45 51°18.592 3°3.757 -999 -999 -999 -999 -999
2008-03-07 08:28:50 51°18.591 3°3.756 -999 -999 -999 -999 -999
2008-03-07 08:28:55 51°18.591 3°3.755 -999 -999 -999 -999 -999
2008-03-07 08:29:00 51°18.591 3°3.754 -999 -999 -999 -999 -999
2008-03-07 08:29:05 51°18.591 3°3.753 -999 -999 -999 -999 -999
2008-03-07 08:29:10 51°18.591 3°3.752 -999 -999 -999 -999 -999
2008-03-07 08:29:16 51°18.591 3°3.751 -999 -999 -999 -999 -999
2008-03-07 08:29:20 51°18.591 3°3.75 -999 -999 -999 -999 -999
2008-03-07 08:29:25 51°18.591 3°3.749 -999 -999 -999 -999 -999
2008-03-07 08:29:30 51°18.591 3°3.748 -999 -999 -999 -999 -999
2008-03-07 08:29:35 51°18.591 3°3.747 -999 -999 -999 -999 -999
2008-03-07 08:29:40 51°18.591 3°3.746 -999 -999 -999 -999 -999
2008-03-07 08:29:45 51°18.591 3°3.745 -999 -999 -999 -999 -999
2008-03-07 08:29:50 51°18.591 3°3.744 -999 -999 -999 -999 -999
2008-03-07 08:29:55 51°18.591 3°3.744 -999 -999 -999 -999 -999
2008-03-07 08:30:00 51°18.591 3°3.742 -999 -999 -999 -999 -999
2008-03-07 08:30:05 51°18.591 3°3.742 -999 -999 -999 -999 -999
2008-03-07 08:30:10 51°18.591 3°3.741 -999 -999 -999 -999 -999
2008-03-07 08:30:15 51°18.591 3°3.74 -999 -999 -999 -999 -999
2008-03-07 08:30:20 51°18.591 3°3.739 -999 -999 -999 -999 -999
2008-03-07 08:30:25 51°18.591 3°3.738 -999 -999 -999 -999 -999
2008-03-07 08:30:30 51°18.591 3°3.738 -999 -999 -999 -999 -999
2008-03-07 08:30:35 51°18.591 3°3.737 -999 -999 -999 -999 -999
2008-03-07 08:30:40 51°18.591 3°3.736 -999 -999 -999 -999 -999
2008-03-07 08:30:45 51°18.591 3°3.735 -999 -999 -999 -999 -999
2008-03-07 08:30:50 51°18.591 3°3.734 -999 -999 -999 -999 -999
2008-03-07 08:30:55 51°18.591 3°3.734 -999 -999 -999 -999 -999
2008-03-07 08:31:00 51°18.591 3°3.733 -999 -999 -999 -999 -999
2008-03-07 08:31:05 51°18.59 3°3.732 -999 -999 -999 -999 -999
2008-03-07 08:31:10 51°18.59 3°3.731 -999 -999 -999 -999 -999
2008-03-07 08:31:15 51°18.59 3°3.73 -999 -999 -999 -999 -999
2008-03-07 08:31:20 51°18.59 3°3.73 -999 -999 -999 -999 -999
2008-03-07 08:31:25 51°18.59 3°3.729 -999 -999 -999 -999 -999
2008-03-07 08:31:30 51°18.59 3°3.729 -999 -999 -999 -999 -999
2008-03-07 08:31:36 51°18.59 3°3.728 -999 -999 -999 -999 -999
2008-03-07 08:31:40 51°18.59 3°3.728 -999 -999 -999 -999 -999
2008-03-07 08:31:45 51°18.59 3°3.727 -999 -999 -999 -999 -999
2008-03-07 08:31:50 51°18.59 3°3.726 -999 -999 -999 -999 -999
2008-03-07 08:31:55 51°18.589 3°3.726 -999 -999 -999 -999 -999
2008-03-07 08:32:00 51°18.589 3°3.725 -999 -999 -999 -999 -999
2008-03-07 08:32:05 51°18.589 3°3.724 -999 -999 -999 -999 -999
2008-03-07 08:32:10 51°18.589 3°3.724 -999 -999 -999 -999 -999
2008-03-07 08:32:15 51°18.589 3°3.723 -999 -999 -999 -999 -999
2008-03-07 08:32:20 51°18.589 3°3.723 -999 -999 -999 -999 -999
2008-03-07 08:32:25 51°18.589 3°3.722 -999 -999 -999 -999 -999
2008-03-07 08:32:30 51°18.589 3°3.722 -999 -999 -999 -999 -999
2008-03-07 08:32:35 51°18.589 3°3.721 -999 -999 -999 -999 -999
2008-03-07 08:32:40 51°18.589 3°3.72 -999 -999 -999 -999 -999
2008-03-07 08:32:45 51°18.589 3°3.72 -999 -999 -999 -999 -999
2008-03-07 08:32:50 51°18.588 3°3.719 -999 -999 -999 -999 -999
2008-03-07 08:32:55 51°18.588 3°3.719 -999 -999 -999 -999 -999
2008-03-07 08:33:00 51°18.588 3°3.718 -999 -999 -999 -999 -999
2008-03-07 08:33:05 51°18.588 3°3.718 -999 -999 -999 -999 -999
2008-03-07 08:33:10 51°18.588 3°3.717 -999 -999 -999 -999 -999
2008-03-07 08:33:15 51°18.588 3°3.717 -999 -999 -999 -999 -999
2008-03-07 08:33:20 51°18.588 3°3.716 -999 -999 -999 -999 -999
2008-03-07 08:33:25 51°18.588 3°3.716 -999 -999 -999 -999 -999
2008-03-07 08:33:30 51°18.587 3°3.715 -999 -999 -999 -999 -999
2008-03-07 08:33:35 51°18.587 3°3.714 -999 -999 -999 -999 -999
2008-03-07 08:33:40 51°18.587 3°3.714 -999 -999 -999 -999 -999
2008-03-07 08:33:45 51°18.587 3°3.713 -999 -999 -999 -999 -999
2008-03-07 08:33:50 51°18.587 3°3.713 -999 -999 -999 -999 -999
2008-03-07 08:33:56 51°18.587 3°3.712 -999 -999 -999 -999 -999
2008-03-07 08:34:00 51°18.587 3°3.711 -999 -999 -999 -999 -999
2008-03-07 08:34:05 51°18.587 3°3.711 -999 -999 -999 -999 -999
2008-03-07 08:34:10 51°18.587 3°3.71 -999 -999 -999 -999 -999
2008-03-07 08:34:15 51°18.587 3°3.71 -999 -999 -999 -999 -999
2008-03-07 08:34:20 51°18.587 3°3.709 -999 -999 -999 -999 -999
2008-03-07 08:34:25 51°18.586 3°3.709 -999 -999 -999 -999 -999
2008-03-07 08:34:30 51°18.586 3°3.708 -999 -999 -999 -999 -999
2008-03-07 08:34:35 51°18.586 3°3.707 -999 -999 -999 -999 -999
2008-03-07 08:34:40 51°18.586 3°3.707 -999 -999 -999 -999 -999
2008-03-07 08:34:45 51°18.586 3°3.706 -999 -999 -999 -999 -999
2008-03-07 08:34:50 51°18.586 3°3.706 -999 -999 -999 -999 -999
2008-03-07 08:34:55 51°18.585 3°3.706 -999 -999 -999 -999 -999
2008-03-07 08:35:00 51°18.585 3°3.705 -999 -999 -999 -999 -999
2008-03-07 08:35:05 51°18.585 3°3.704 -999 -999 -999 -999 -999
2008-03-07 08:35:10 51°18.585 3°3.704 -999 -999 -999 -999 -999
2008-03-07 08:35:15 51°18.584 3°3.703 -999 -999 -999 -999 -999
2008-03-07 08:35:20 51°18.584 3°3.703 -999 -999 -999 -999 -999
2008-03-07 08:35:25 51°18.584 3°3.702 -999 -999 -999 -999 -999
2008-03-07 08:35:30 51°18.584 3°3.702 -999 -999 -999 -999 -999
2008-03-07 08:35:35 51°18.583 3°3.701 -999 -999 -999 -999 -999
2008-03-07 08:35:40 51°18.583 3°3.701 -999 -999 -999 -999 -999
2008-03-07 08:35:45 51°18.583 3°3.7 -999 -999 -999 -999 -999
2008-03-07 08:35:50 51°18.583 3°3.7 -999 -999 -999 -999 -999
2008-03-07 08:35:55 51°18.583 3°3.699 -999 -999 -999 -999 -999
2008-03-07 08:36:00 51°18.582 3°3.699 -999 -999 -999 -999 -999
2008-03-07 08:36:05 51°18.582 3°3.698 -999 -999 -999 -999 -999
2008-03-07 08:36:10 51°18.582 3°3.698 -999 -999 -999 -999 -999
2008-03-07 08:36:16 51°18.582 3°3.697 -999 -999 -999 -999 -999
2008-03-07 08:36:20 51°18.582 3°3.697 -999 -999 -999 -999 -999
2008-03-07 08:36:25 51°18.582 3°3.696 -999 -999 -999 -999 -999
2008-03-07 08:36:30 51°18.582 3°3.696 -999 -999 -999 -999 -999
2008-03-07 08:36:36 51°18.582 3°3.695 -999 -999 -999 -999 -999
2008-03-07 08:36:40 51°18.582 3°3.695 -999 -999 -999 -999 -999
2008-03-07 08:36:45 51°18.582 3°3.694 -999 -999 -999 -999 -999
2008-03-07 08:36:50 51°18.582 3°3.694 -999 -999 -999 -999 -999
2008-03-07 08:36:55 51°18.581 3°3.693 -999 -999 -999 -999 -999
2008-03-07 08:37:00 51°18.581 3°3.692 -999 -999 -999 -999 -999
2008-03-07 08:37:05 51°18.581 3°3.692 -999 -999 -999 -999 -999
2008-03-07 08:37:10 51°18.581 3°3.691 -999 -999 -999 -999 -999
2008-03-07 08:37:15 51°18.581 3°3.691 -999 -999 -999 -999 -999
2008-03-07 08:37:20 51°18.581 3°3.69 -999 -999 -999 -999 -999
2008-03-07 08:37:25 51°18.58 3°3.689 -999 -999 -999 -999 -999
2008-03-07 08:37:30 51°18.579 3°3.689 -999 -999 -999 -999 -999
2008-03-07 08:37:35 51°18.579 3°3.688 -999 -999 -999 -999 -999
2008-03-07 08:37:40 51°18.579 3°3.688 -999 -999 -999 -999 -999
2008-03-07 08:37:45 51°18.579 3°3.687 -999 -999 -999 -999 -999
2008-03-07 08:37:50 51°18.579 3°3.686 -999 -999 -999 -999 -999
2008-03-07 08:37:55 51°18.579 3°3.686 -999 -999 -999 -999 -999
2008-03-07 08:38:00 51°18.579 3°3.685 -999 -999 -999 -999 -999
2008-03-07 08:38:05 51°18.579 3°3.685 -999 -999 -999 -999 -999
2008-03-07 08:38:10 51°18.579 3°3.684 -999 -999 -999 -999 -999
2008-03-07 08:38:15 51°18.578 3°3.684 -999 -999 -999 -999 -999
2008-03-07 08:38:20 51°18.578 3°3.683 -999 -999 -999 -999 -999
2008-03-07 08:38:25 51°18.578 3°3.683 -999 -999 -999 -999 -999
2008-03-07 08:38:30 51°18.578 3°3.682 -999 -999 -999 -999 -999
2008-03-07 08:38:36 51°18.578 3°3.682 -999 -999 -999 -999 -999
2008-03-07 08:38:40 51°18.578 3°3.681 -999 -999 -999 -999 -999
2008-03-07 08:38:45 51°18.578 3°3.681 -999 -999 -999 -999 -999
2008-03-07 08:38:50 51°18.578 3°3.681 -999 -999 -999 -999 -999
2008-03-07 08:38:55 51°18.577 3°3.68 -999 -999 -999 -999 -999
2008-03-07 08:39:00 51°18.577 3°3.68 -999 -999 -999 -999 -999
2008-03-07 08:39:05 51°18.577 3°3.679 -999 -999 -999 -999 -999
2008-03-07 08:39:10 51°18.577 3°3.679 -999 -999 -999 -999 -999
2008-03-07 08:39:15 51°18.577 3°3.678 -999 -999 -999 -999 -999
2008-03-07 08:39:20 51°18.577 3°3.678 -999 -999 -999 -999 -999
2008-03-07 08:39:25 51°18.577 3°3.677 -999 -999 -999 -999 -999
2008-03-07 08:39:30 51°18.577 3°3.677 -999 -999 -999 -999 -999
2008-03-07 08:39:35 51°18.577 3°3.676 -999 -999 -999 -999 -999
2008-03-07 08:39:40 51°18.577 3°3.676 -999 -999 -999 -999 -999
2008-03-07 08:39:45 51°18.577 3°3.676 -999 -999 -999 -999 -999
2008-03-07 08:39:50 51°18.577 3°3.675 -999 -999 -999 -999 -999
2008-03-07 08:39:55 51°18.577 3°3.675 -999 -999 -999 -999 -999
2008-03-07 08:40:00 51°18.577 3°3.674 -999 -999 -999 -999 -999
2008-03-07 08:40:05 51°18.577 3°3.674 -999 -999 -999 -999 -999
2008-03-07 08:40:10 51°18.577 3°3.673 -999 -999 -999 -999 -999
2008-03-07 08:40:15 51°18.577 3°3.673 -999 -999 -999 -999 -999
2008-03-07 08:40:20 51°18.577 3°3.672 -999 -999 -999 -999 -999
2008-03-07 08:40:25 51°18.577 3°3.672 -999 -999 -999 -999 -999
2008-03-07 08:40:30 51°18.577 3°3.672 -999 -999 -999 -999 -999
2008-03-07 08:40:36 51°18.576 3°3.672 -999 -999 -999 -999 -999
2008-03-07 08:40:40 51°18.576 3°3.671 -999 -999 -999 -999 -999
2008-03-07 08:40:45 51°18.576 3°3.671 -999 -999 -999 -999 -999
2008-03-07 08:40:50 51°18.576 3°3.671 -999 -999 -999 -999 -999
2008-03-07 08:40:55 51°18.576 3°3.67 -999 -999 -999 -999 -999
2008-03-07 08:41:00 51°18.576 3°3.67 -999 -999 -999 -999 -999
2008-03-07 08:41:05 51°18.576 3°3.669 -999 -999 -999 -999 -999
2008-03-07 08:41:10 51°18.576 3°3.669 -999 -999 -999 -999 -999
2008-03-07 08:41:15 51°18.576 3°3.669 -999 -999 -999 -999 -999
2008-03-07 08:41:20 51°18.576 3°3.669 -999 -999 -999 -999 -999
2008-03-07 08:41:25 51°18.576 3°3.668 -999 -999 -999 -999 -999
2008-03-07 08:41:30 51°18.576 3°3.668 -999 -999 -999 -999 -999
2008-03-07 08:41:35 51°18.576 3°3.668 -999 -999 -999 -999 -999
2008-03-07 08:41:40 51°18.576 3°3.667 -999 -999 -999 -999 -999
2008-03-07 08:41:45 51°18.576 3°3.667 -999 -999 -999 -999 -999
2008-03-07 08:41:50 51°18.576 3°3.667 -999 -999 -999 -999 -999
2008-03-07 08:41:55 51°18.576 3°3.666 -999 -999 -999 -999 -999
2008-03-07 08:42:00 51°18.576 3°3.666 -999 -999 -999 -999 -999
2008-03-07 08:42:05 51°18.576 3°3.666 -999 -999 -999 -999 -999
2008-03-07 08:42:10 51°18.576 3°3.666 -999 -999 -999 -999 -999
2008-03-07 08:42:15 51°18.576 3°3.665 -999 -999 -999 -999 -999
2008-03-07 08:42:20 51°18.576 3°3.665 -999 -999 -999 -999 -999
2008-03-07 08:42:25 51°18.576 3°3.665 -999 -999 -999 -999 -999